Location: Praha
(50.0830°N, 14.4670°E)
Time: 17:14:11
(UTC+02:00)

ISS - Pass Details

Date: 03 September 2024
Orbit: 414 x 424 km, 51.6° (Epoch: 16 September)

Event Time Altitude Azimuth Distance (km) Brightness Sun altitude
Exits shadow 02:59:59 18° 75° (ENE) 1,123 -1.1 -27.0°
Drops below altitude 10° 03:01:00 10° 78° (ENE) 1,523 -0.4 -26.9°
Sets 03:03:07 0° 81° (E) 2,391 0.7 -26.7°
